Time,TemperatureF,DewpointF,PressureIn,WindDirection,WindDirectionDegrees,WindSpeedMPH,WindSpeedGustMPH,Humidity,HourlyPrecipIn,Conditions,Clouds,dailyrainin,SoftwareType,DateUTC
2013-02-15 00:00:00,16.7,3.7,30.39,NNW,346,5.0,7.0,56,0.00,,,0.00,Wunderground v.1.15,2013-02-15 07:00:00,
2013-02-15 00:05:00,16.6,4.0,30.40,NW,321,6.0,8.0,57,0.00,,,0.00,Wunderground v.1.15,2013-02-15 07:05:00,
2013-02-15 00:10:00,16.6,3.6,30.40,NW,321,4.0,5.0,56,0.00,,,0.00,Wunderground v.1.15,2013-02-15 07:10:00,
2013-02-15 00:15:00,16.3,3.3,30.40,NW,320,3.0,6.0,56,0.00,,,0.00,Wunderground v.1.15,2013-02-15 07:15:00,
2013-02-15 00:20:00,15.4,2.9,30.40,NW,319,0.0,3.0,57,0.00,,,0.00,Wunderground v.1.15,2013-02-15 07:20:00,
2013-02-15 00:25:00,14.3,2.6,30.40,NW,321,0.0,3.0,59,0.00,,,0.00,Wunderground v.1.15,2013-02-15 07:25:00,
2013-02-15 00:30:00,11.5,0.3,30.41,SSE,153,0.0,4.0,60,0.00,,,0.00,Wunderground v.1.15,2013-02-15 07:30:00,
2013-02-15 00:35:00,11.6,1.4,30.41,SSW,202,2.0,5.0,63,0.00,,,0.00,Wunderground v.1.15,2013-02-15 07:35:00,
2013-02-15 00:40:00,11.1,0.9,30.41,SSW,202,3.0,4.0,63,0.00,,,0.00,Wunderground v.1.15,2013-02-15 07:40:00,
2013-02-15 00:45:00,11.1,1.6,30.41,SSW,202,3.0,5.0,65,0.00,,,0.00,Wunderground v.1.15,2013-02-15 07:45:00,
2013-02-15 00:50:00,12.5,3.0,30.41,SSW,202,2.0,4.0,65,0.00,,,0.00,Wunderground v.1.15,2013-02-15 07:50:00,
2013-02-15 00:55:00,13.7,3.1,30.41,West,264,3.0,4.0,62,0.00,,,0.00,Wunderground v.1.15,2013-02-15 07:55:00,
2013-02-15 01:00:00,14.7,3.3,30.41,West,272,3.0,5.0,60,0.00,,,0.00,Wunderground v.1.15,2013-02-15 08:00:00,
2013-02-15 01:05:00,15.4,2.9,30.41,West,272,4.0,6.0,57,0.00,,,0.00,Wunderground v.1.15,2013-02-15 08:05:00,
2013-02-15 01:10:00,13.0,1.0,30.42,SW,230,4.0,5.0,58,0.00,,,0.00,Wunderground v.1.15,2013-02-15 08:10:00,
2013-02-15 01:15:00,14.1,2.0,30.42,SW,229,4.0,6.0,58,0.00,,,0.00,Wunderground v.1.15,2013-02-15 08:15:00,
2013-02-15 01:20:00,15.0,3.2,30.42,SW,219,4.0,6.0,59,0.00,,,0.00,Wunderground v.1.15,2013-02-15 08:20:00,
2013-02-15 01:25:00,15.2,2.3,30.42,SSW,200,7.0,7.0,56,0.00,,,0.00,Wunderground v.1.15,2013-02-15 08:25:00,
2013-02-15 01:30:00,16.3,3.3,30.42,SSW,201,4.0,5.0,56,0.00,,,0.00,Wunderground v.1.15,2013-02-15 08:30:00,
2013-02-15 01:35:00,16.6,3.6,30.42,SSW,200,2.0,5.0,56,0.00,,,0.00,Wunderground v.1.15,2013-02-15 08:35:00,
2013-02-15 01:40:00,16.9,3.5,30.42,SSW,200,0.0,2.0,55,0.00,,,0.00,Wunderground v.1.15,2013-02-15 08:40:00,
2013-02-15 01:45:00,17.0,3.6,30.42,SSW,201,0.0,2.0,55,0.00,,,0.00,Wunderground v.1.15,2013-02-15 08:45:00,
2013-02-15 01:50:00,17.4,4.0,30.42,SSW,201,0.0,0.0,55,0.00,,,0.00,Wunderground v.1.15,2013-02-15 08:50:00,
2013-02-15 01:55:00,17.3,3.9,30.42,SSW,201,3.0,4.0,55,0.00,,,0.00,Wunderground v.1.15,2013-02-15 08:55:00,
2013-02-15 02:00:00,17.2,3.4,30.42,South,190,6.0,7.0,54,0.00,,,0.00,Wunderground v.1.15,2013-02-15 09:00:00,
2013-02-15 02:05:00,16.6,2.8,30.42,South,190,9.0,9.0,54,0.00,,,0.00,Wunderground v.1.15,2013-02-15 09:05:00,
2013-02-15 02:10:00,15.5,1.8,30.42,SSW,205,4.0,7.0,54,0.00,,,0.00,Wunderground v.1.15,2013-02-15 09:10:00,
2013-02-15 02:15:00,13.7,0.1,30.42,SSW,206,4.0,7.0,54,0.00,,,0.00,Wunderground v.1.15,2013-02-15 09:15:00,
2013-02-15 02:20:00,12.3,0.3,30.42,SSE,161,5.0,5.0,58,0.00,,,0.00,Wunderground v.1.15,2013-02-15 09:20:00,
2013-02-15 02:25:00,12.1,0.1,30.42,South,173,0.0,5.0,58,0.00,,,0.00,Wunderground v.1.15,2013-02-15 09:25:00,
2013-02-15 02:30:00,12.6,1.7,30.42,SSW,209,5.0,6.0,61,0.00,,,0.00,Wunderground v.1.15,2013-02-15 09:30:00,
2013-02-15 02:35:00,13.0,1.3,30.42,North,360,2.0,6.0,59,0.00,,,0.00,Wunderground v.1.15,2013-02-15 09:35:00,
2013-02-15 02:40:00,12.4,1.5,30.42,North,360,0.0,3.0,61,0.00,,,0.00,Wunderground v.1.15,2013-02-15 09:40:00,
2013-02-15 02:45:00,12.8,1.9,30.42,North,360,0.0,3.0,61,0.00,,,0.00,Wunderground v.1.15,2013-02-15 09:45:00,
2013-02-15 02:50:00,12.9,2.0,30.42,North,360,0.0,1.0,61,0.00,,,0.00,Wunderground v.1.15,2013-02-15 09:50:00,
2013-02-15 02:55:00,12.7,1.4,30.41,North,360,0.0,1.0,60,0.00,,,0.00,Wunderground v.1.15,2013-02-15 09:55:00,
2013-02-15 03:00:00,12.6,2.0,30.41,North,360,0.0,0.0,62,0.00,,,0.00,Wunderground v.1.15,2013-02-15 10:00:00,
2013-02-15 03:05:00,12.0,1.5,30.41,North,360,0.0,0.0,62,0.00,,,0.00,Wunderground v.1.15,2013-02-15 10:05:00,
2013-02-15 03:10:00,11.6,1.1,30.41,North,360,0.0,0.0,62,0.00,,,0.00,Wunderground v.1.15,2013-02-15 10:10:00,
2013-02-15 03:15:00,11.3,1.1,30.41,North,360,0.0,0.0,63,0.00,,,0.00,Wunderground v.1.15,2013-02-15 10:15:00,
2013-02-15 03:20:00,11.6,1.8,30.41,North,360,0.0,0.0,64,0.00,,,0.00,Wunderground v.1.15,2013-02-15 10:20:00,
2013-02-15 03:25:00,12.3,2.8,30.41,North,360,0.0,0.0,65,0.00,,,0.00,Wunderground v.1.15,2013-02-15 10:25:00,
2013-02-15 03:30:00,12.5,1.6,30.41,North,360,0.0,0.0,61,0.00,,,0.00,Wunderground v.1.15,2013-02-15 10:30:00,
2013-02-15 03:35:00,11.6,0.0,30.40,WNW,284,2.0,5.0,59,0.00,,,0.00,Wunderground v.1.15,2013-02-15 10:35:00,
2013-02-15 03:40:00,11.5,1.3,30.40,WNW,285,0.0,1.0,63,0.00,,,0.00,Wunderground v.1.15,2013-02-15 10:40:00,
2013-02-15 03:45:00,11.4,1.2,30.41,WNW,284,0.0,4.0,63,0.00,,,0.00,Wunderground v.1.15,2013-02-15 10:45:00,
2013-02-15 03:50:00,11.1,0.9,30.41,North,5,0.0,1.0,63,0.00,,,0.00,Wunderground v.1.15,2013-02-15 10:50:00,
2013-02-15 03:55:00,11.2,1.4,30.41,North,360,0.0,1.0,64,0.00,,,0.00,Wunderground v.1.15,2013-02-15 10:55:00,
2013-02-15 04:00:00,11.2,1.4,30.40,North,360,0.0,0.0,64,0.00,,,0.00,Wunderground v.1.15,2013-02-15 11:00:00,
2013-02-15 04:05:00,11.4,1.6,30.41,North,360,4.0,5.0,64,0.00,,,0.00,Wunderground v.1.15,2013-02-15 11:05:00,
2013-02-15 04:10:00,12.2,2.0,30.40,North,360,0.0,2.0,63,0.00,,,0.00,Wunderground v.1.15,2013-02-15 11:10:00,
2013-02-15 04:15:00,12.3,1.7,30.40,NW,326,4.0,8.0,62,0.00,,,0.00,Wunderground v.1.15,2013-02-15 11:15:00,
2013-02-15 04:20:00,12.7,2.5,30.40,NW,306,9.0,9.0,63,0.00,,,0.00,Wunderground v.1.15,2013-02-15 11:20:00,
2013-02-15 04:25:00,13.4,2.1,30.39,WNW,303,0.0,10.0,60,0.00,,,0.00,Wunderground v.1.15,2013-02-15 11:25:00,
2013-02-15 04:30:00,13.5,1.4,30.39,WNW,303,3.0,3.0,58,0.00,,,0.00,Wunderground v.1.15,2013-02-15 11:30:00,
2013-02-15 04:35:00,12.4,-0.3,30.39,WNW,303,2.0,5.0,56,0.00,,,0.00,Wunderground v.1.15,2013-02-15 11:35:00,
2013-02-15 04:40:00,10.6,-2.0,30.39,WSW,254,6.0,6.0,56,0.00,,,0.00,Wunderground v.1.15,2013-02-15 11:40:00,
2013-02-15 04:45:00,8.4,-3.7,30.39,SW,220,3.0,7.0,57,0.00,,,0.00,Wunderground v.1.15,2013-02-15 11:45:00,
2013-02-15 04:50:00,6.7,-4.3,30.39,SW,219,0.0,4.0,60,0.00,,,0.00,Wunderground v.1.15,2013-02-15 11:50:00,
2013-02-15 04:55:00,6.1,-4.1,30.39,SW,220,0.0,4.0,62,0.00,,,0.00,Wunderground v.1.15,2013-02-15 11:55:00,
2013-02-15 05:00:00,5.8,-3.4,30.39,SW,221,0.0,0.0,65,0.00,,,0.00,Wunderground v.1.15,2013-02-15 12:00:00,
2013-02-15 05:05:00,5.9,-2.7,30.39,West,265,3.0,4.0,67,0.00,,,0.00,Wunderground v.1.15,2013-02-15 12:05:00,
2013-02-15 05:10:00,7.5,-1.2,30.40,West,266,4.0,4.0,67,0.00,,,0.00,Wunderground v.1.15,2013-02-15 12:10:00,
2013-02-15 05:15:00,8.2,-1.2,30.40,WNW,287,4.0,5.0,65,0.00,,,0.00,Wunderground v.1.15,2013-02-15 12:15:00,
2013-02-15 05:20:00,9.5,-0.2,30.40,WNW,287,4.0,5.0,64,0.00,,,0.00,Wunderground v.1.15,2013-02-15 12:20:00,
2013-02-15 05:25:00,10.4,-0.4,30.40,WNW,290,5.0,7.0,61,0.00,,,0.00,Wunderground v.1.15,2013-02-15 12:25:00,
2013-02-15 05:30:00,11.0,-0.2,30.40,WNW,290,5.0,5.0,60,0.00,,,0.00,Wunderground v.1.15,2013-02-15 12:30:00,
2013-02-15 05:35:00,11.5,-0.1,30.40,NW,305,4.0,7.0,59,0.00,,,0.00,Wunderground v.1.15,2013-02-15 12:35:00,
2013-02-15 05:40:00,12.9,0.9,30.40,WNW,302,5.0,5.0,58,0.00,,,0.00,Wunderground v.1.15,2013-02-15 12:40:00,
2013-02-15 05:45:00,14.3,1.4,30.41,NW,319,8.0,8.0,56,0.00,,,0.00,Wunderground v.1.15,2013-02-15 12:45:00,
2013-02-15 05:50:00,14.7,1.0,30.40,NNW,334,6.0,6.0,54,0.00,,,0.00,Wunderground v.1.15,2013-02-15 12:50:00,
2013-02-15 05:55:00,14.4,0.8,30.41,WNW,299,7.0,9.0,54,0.00,,,0.00,Wunderground v.1.15,2013-02-15 12:55:00,
2013-02-15 06:00:00,15.0,0.9,30.40,NNW,327,4.0,6.0,53,0.00,,,0.00,Wunderground v.1.15,2013-02-15 13:00:00,
2013-02-15 06:05:00,14.6,0.5,30.40,WNW,302,6.0,8.0,53,0.00,,,0.00,Wunderground v.1.15,2013-02-15 13:05:00,
2013-02-15 06:10:00,14.6,0.5,30.40,NNW,338,5.0,7.0,53,0.00,,,0.00,Wunderground v.1.15,2013-02-15 13:10:00,
2013-02-15 06:15:00,14.0,0.4,30.41,NW,310,6.0,8.0,54,0.00,,,0.00,Wunderground v.1.15,2013-02-15 13:15:00,
2013-02-15 06:20:00,14.0,0.4,30.41,NW,306,6.0,7.0,54,0.00,,,0.00,Wunderground v.1.15,2013-02-15 13:20:00,
2013-02-15 06:25:00,14.0,0.8,30.42,NW,310,7.0,10.0,55,0.00,,,0.00,Wunderground v.1.15,2013-02-15 13:25:00,
2013-02-15 06:30:00,14.5,1.2,30.41,WNW,302,4.0,7.0,55,0.00,,,0.00,Wunderground v.1.15,2013-02-15 13:30:00,
2013-02-15 06:35:00,14.4,0.8,30.41,NW,304,6.0,8.0,54,0.00,,,0.00,Wunderground v.1.15,2013-02-15 13:35:00,
2013-02-15 06:40:00,13.9,0.3,30.41,WNW,303,5.0,5.0,54,0.00,,,0.00,Wunderground v.1.15,2013-02-15 13:40:00,
2013-02-15 06:45:00,14.1,0.9,30.41,WNW,300,6.0,7.0,55,0.00,,,0.00,Wunderground v.1.15,2013-02-15 13:45:00,
2013-02-15 06:50:00,13.9,0.3,30.42,WNW,295,4.0,6.0,54,0.00,,,0.00,Wunderground v.1.15,2013-02-15 13:50:00,
2013-02-15 06:55:00,12.8,-0.7,30.42,WNW,295,5.0,7.0,54,0.00,,,0.00,Wunderground v.1.15,2013-02-15 13:55:00,
2013-02-15 07:00:00,12.3,-0.4,30.42,WNW,298,5.0,5.0,56,0.00,,,0.00,Wunderground v.1.15,2013-02-15 14:00:00,
2013-02-15 07:05:00,11.7,-1.0,30.42,WNW,291,3.0,6.0,56,0.00,,,0.00,Wunderground v.1.15,2013-02-15 14:05:00,
2013-02-15 07:10:00,11.6,-0.3,30.42,NNW,327,4.0,5.0,58,0.00,,,0.00,Wunderground v.1.15,2013-02-15 14:10:00,
2013-02-15 07:15:00,11.9,0.3,30.42,NW,326,2.0,5.0,59,0.00,,,0.00,Wunderground v.1.15,2013-02-15 14:15:00,
2013-02-15 07:20:00,12.2,-0.1,30.43,NW,326,2.0,3.0,57,0.00,,,0.00,Wunderground v.1.15,2013-02-15 14:20:00,
2013-02-15 07:25:00,12.1,0.1,30.43,NW,326,3.0,3.0,58,0.00,,,0.00,Wunderground v.1.15,2013-02-15 14:25:00,
2013-02-15 07:30:00,11.9,-0.1,30.44,NW,326,2.0,2.0,58,0.00,,,0.00,Wunderground v.1.15,2013-02-15 14:30:00,
2013-02-15 07:35:00,12.2,0.6,30.44,NW,326,4.0,5.0,59,0.00,,,0.00,Wunderground v.1.15,2013-02-15 14:35:00,
2013-02-15 07:40:00,13.2,1.5,30.44,NNW,337,4.0,5.0,59,0.00,,,0.00,Wunderground v.1.15,2013-02-15 14:40:00,
2013-02-15 07:45:00,13.8,2.1,30.44,NNW,338,2.0,6.0,59,0.00,,,0.00,Wunderground v.1.15,2013-02-15 14:45:00,
2013-02-15 07:50:00,13.9,2.2,30.44,NNW,338,0.0,2.0,59,0.00,,,0.00,Wunderground v.1.15,2013-02-15 14:50:00,
2013-02-15 07:55:00,13.7,2.4,30.44,NNW,338,0.0,2.0,60,0.00,,,0.00,Wunderground v.1.15,2013-02-15 14:55:00,
2013-02-15 08:00:00,13.6,2.3,30.44,NNW,338,1.0,1.0,60,0.00,,,0.00,Wunderground v.1.15,2013-02-15 15:00:00,
2013-02-15 08:05:00,13.5,1.8,30.44,NNW,338,0.0,3.0,59,0.00,,,0.00,Wunderground v.1.15,2013-02-15 15:05:00,
2013-02-15 08:10:00,13.5,1.4,30.45,NNW,338,1.0,3.0,58,0.00,,,0.00,Wunderground v.1.15,2013-02-15 15:10:00,
2013-02-15 08:15:00,13.4,1.4,30.45,NNW,338,4.0,4.0,58,0.00,,,0.00,Wunderground v.1.15,2013-02-15 15:15:00,
2013-02-15 08:20:00,13.7,1.6,30.45,NW,311,3.0,4.0,58,0.00,,,0.00,Wunderground v.1.15,2013-02-15 15:20:00,
2013-02-15 08:25:00,13.5,1.4,30.44,West,274,6.0,7.0,58,0.00,,,0.00,Wunderground v.1.15,2013-02-15 15:25:00,
2013-02-15 08:30:00,13.8,2.5,30.44,West,274,5.0,6.0,60,0.00,,,0.00,Wunderground v.1.15,2013-02-15 15:30:00,
2013-02-15 08:35:00,13.8,2.5,30.44,West,264,5.0,6.0,60,0.00,,,0.00,Wunderground v.1.15,2013-02-15 15:35:00,
2013-02-15 08:40:00,14.0,2.7,30.44,West,263,4.0,6.0,60,0.00,,,0.00,Wunderground v.1.15,2013-02-15 15:40:00,
2013-02-15 08:45:00,15.3,3.9,30.45,West,279,6.0,7.0,60,0.00,,,0.00,Wunderground v.1.15,2013-02-15 15:45:00,
2013-02-15 08:50:00,16.8,4.6,30.44,West,279,4.0,5.0,58,0.00,,,0.00,Wunderground v.1.15,2013-02-15 15:50:00,
2013-02-15 08:55:00,18.0,5.7,30.45,WNW,288,4.0,6.0,58,0.00,,,0.00,Wunderground v.1.15,2013-02-15 15:55:00,
2013-02-15 09:00:00,19.1,6.0,30.45,WNW,288,2.0,4.0,56,0.00,,,0.00,Wunderground v.1.15,2013-02-15 16:00:00,
2013-02-15 09:05:00,19.9,6.3,30.44,WNW,288,2.0,4.0,55,0.00,,,0.00,Wunderground v.1.15,2013-02-15 16:05:00,
2013-02-15 09:10:00,20.4,6.0,30.45,WNW,288,0.0,1.0,53,0.00,,,0.00,Wunderground v.1.15,2013-02-15 16:10:00,
2013-02-15 09:15:00,21.0,5.7,30.44,WNW,288,0.0,1.0,51,0.00,,,0.00,Wunderground v.1.15,2013-02-15 16:15:00,
2013-02-15 09:20:00,21.8,7.3,30.45,NE,42,5.0,5.0,53,0.00,,,0.00,Wunderground v.1.15,2013-02-15 16:20:00,
2013-02-15 09:25:00,22.8,8.6,30.45,NE,42,0.0,5.0,54,0.00,,,0.00,Wunderground v.1.15,2013-02-15 16:25:00,
2013-02-15 09:30:00,23.3,8.7,30.44,NE,44,3.0,4.0,53,0.00,,,0.00,Wunderground v.1.15,2013-02-15 16:30:00,
2013-02-15 09:36:00,24.2,8.7,30.44,NE,43,1.0,5.0,51,0.00,,,0.00,Wunderground v.1.15,2013-02-15 16:36:00,
2013-02-15 09:41:00,24.7,9.5,30.44,North,355,2.0,4.0,52,0.00,,,0.00,Wunderground v.1.15,2013-02-15 16:41:00,
2013-02-15 09:46:00,25.3,10.1,30.44,WNW,286,7.0,8.0,52,0.00,,,0.00,Wunderground v.1.15,2013-02-15 16:46:00,
2013-02-15 09:51:00,25.7,8.7,30.44,WNW,284,7.0,9.0,48,0.00,,,0.00,Wunderground v.1.15,2013-02-15 16:51:00,
2013-02-15 09:56:00,26.0,9.9,30.44,WNW,298,5.0,9.0,50,0.00,,,0.00,Wunderground v.1.15,2013-02-15 16:56:00,
2013-02-15 10:01:00,25.8,9.2,30.44,West,269,6.0,8.0,49,0.00,,,0.00,Wunderground v.1.15,2013-02-15 17:01:00,
2013-02-15 10:06:00,26.1,9.5,30.43,WNW,298,8.0,9.0,49,0.00,,,0.00,Wunderground v.1.15,2013-02-15 17:06:00,
2013-02-15 10:11:00,26.7,9.6,30.44,WNW,295,8.0,14.0,48,0.00,,,0.00,Wunderground v.1.15,2013-02-15 17:11:00,
2013-02-15 10:16:00,27.1,10.4,30.44,NW,314,9.0,14.0,49,0.00,,,0.00,Wunderground v.1.15,2013-02-15 17:16:00,
2013-02-15 10:21:00,27.7,10.1,30.43,NNW,329,15.0,22.0,47,0.00,,,0.00,Wunderground v.1.15,2013-02-15 17:21:00,
2013-02-15 10:26:00,28.2,9.5,30.43,NW,311,19.0,23.0,45,0.00,,,0.00,Wunderground v.1.15,2013-02-15 17:26:00,
2013-02-15 10:31:00,28.8,10.6,30.43,NW,323,16.0,18.0,46,0.00,,,0.00,Wunderground v.1.15,2013-02-15 17:31:00,
2013-02-15 10:36:00,29.2,11.9,30.43,North,355,16.0,24.0,48,0.00,,,0.00,Wunderground v.1.15,2013-02-15 17:36:00,
2013-02-15 10:41:00,29.4,11.1,30.43,North,351,15.0,22.0,46,0.00,,,0.00,Wunderground v.1.15,2013-02-15 17:41:00,
2013-02-15 10:46:00,29.5,10.2,30.43,NNW,331,23.0,23.0,44,0.00,,,0.00,Wunderground v.1.15,2013-02-15 17:46:00,
2013-02-15 10:51:00,29.4,10.1,30.43,NNW,342,20.0,22.0,44,0.00,,,0.00,Wunderground v.1.15,2013-02-15 17:51:00,
2013-02-15 10:56:00,29.6,10.8,30.44,NW,320,19.0,22.0,45,0.00,,,0.00,Wunderground v.1.15,2013-02-15 17:56:00,
2013-02-15 11:01:00,30.0,10.2,30.44,NNW,328,17.0,22.0,43,0.00,,,0.00,Wunderground v.1.15,2013-02-15 18:01:00,
2013-02-15 11:06:00,30.2,11.4,30.44,NW,319,15.0,22.0,45,0.00,,,0.00,Wunderground v.1.15,2013-02-15 18:06:00,
2013-02-15 11:11:00,30.3,9.4,30.43,NW,311,22.0,25.0,41,0.00,,,0.00,Wunderground v.1.15,2013-02-15 18:11:00,
2013-02-15 11:16:00,30.2,9.8,30.44,NW,321,16.0,25.0,42,0.00,,,0.00,Wunderground v.1.15,2013-02-15 18:16:00,
2013-02-15 11:21:00,30.3,9.4,30.43,NW,308,16.0,19.0,41,0.00,,,0.00,Wunderground v.1.15,2013-02-15 18:21:00,
2013-02-15 11:26:00,30.6,9.1,30.42,NNW,345,15.0,21.0,40,0.00,,,0.00,Wunderground v.1.15,2013-02-15 18:26:00,
2013-02-15 11:31:00,30.9,10.5,30.42,NNW,327,17.0,19.0,42,0.00,,,0.00,Wunderground v.1.15,2013-02-15 18:31:00,
2013-02-15 11:36:00,31.1,10.6,30.42,NW,313,12.0,20.0,42,0.00,,,0.00,Wunderground v.1.15,2013-02-15 18:36:00,
2013-02-15 11:41:00,31.7,10.7,30.42,NNW,329,14.0,15.0,41,0.00,,,0.00,Wunderground v.1.15,2013-02-15 18:41:00,
2013-02-15 11:46:00,32.0,11.5,30.42,NW,321,14.0,20.0,42,0.00,,,0.00,Wunderground v.1.15,2013-02-15 18:46:00,
2013-02-15 11:51:00,32.1,9.9,30.42,NNW,329,16.0,19.0,39,0.00,,,0.00,Wunderground v.1.15,2013-02-15 18:51:00,
2013-02-15 11:56:00,32.1,9.9,30.42,NNW,331,14.0,22.0,39,0.00,,,0.00,Wunderground v.1.15,2013-02-15 18:56:00,
2013-02-15 12:01:00,32.6,10.9,30.42,NW,315,16.0,19.0,40,0.00,,,0.00,Wunderground v.1.15,2013-02-15 19:01:00,
2013-02-15 12:06:00,33.5,12.8,30.41,North,10,13.0,19.0,42,0.00,,,0.00,Wunderground v.1.15,2013-02-15 19:06:00,
2013-02-15 12:11:00,33.5,9.4,30.41,NNW,342,17.0,22.0,36,0.00,,,0.00,Wunderground v.1.15,2013-02-15 19:11:00,
2013-02-15 12:16:00,33.4,10.5,30.41,WNW,302,21.0,22.0,38,0.00,,,0.00,Wunderground v.1.15,2013-02-15 19:16:00,
2013-02-15 12:21:00,33.3,10.4,30.40,NNW,338,24.0,24.0,38,0.00,,,0.00,Wunderground v.1.15,2013-02-15 19:21:00,
2013-02-15 12:26:00,33.5,11.2,30.40,NNW,344,22.0,28.0,39,0.00,,,0.00,Wunderground v.1.15,2013-02-15 19:26:00,
2013-02-15 12:31:00,33.9,12.1,30.40,NW,315,19.0,23.0,40,0.00,,,0.00,Wunderground v.1.15,2013-02-15 19:31:00,
2013-02-15 12:36:00,34.0,10.4,30.40,NW,325,18.0,27.0,37,0.00,,,0.00,Wunderground v.1.15,2013-02-15 19:36:00,
2013-02-15 12:41:00,33.9,9.7,30.40,NW,324,21.0,23.0,36,0.00,,,0.00,Wunderground v.1.15,2013-02-15 19:41:00,
2013-02-15 12:46:00,33.9,9.7,30.40,NW,321,17.0,25.0,36,0.00,,,0.00,Wunderground v.1.15,2013-02-15 19:46:00,
2013-02-15 12:51:00,34.4,10.2,30.39,NW,325,17.0,20.0,36,0.00,,,0.00,Wunderground v.1.15,2013-02-15 19:51:00,
2013-02-15 12:56:00,34.8,10.5,30.40,NW,317,12.0,23.0,36,0.00,,,0.00,Wunderground v.1.15,2013-02-15 19:56:00,
2013-02-15 13:01:00,35.5,9.2,30.40,WNW,301,17.0,17.0,33,0.00,,,0.00,Wunderground v.1.15,2013-02-15 20:01:00,
2013-02-15 13:06:00,35.8,9.5,30.40,NW,319,14.0,19.0,33,0.00,,,0.00,Wunderground v.1.15,2013-02-15 20:06:00,
2013-02-15 13:11:00,36.2,11.1,30.39,NW,319,11.0,17.0,35,0.00,,,0.00,Wunderground v.1.15,2013-02-15 20:11:00,
2013-02-15 13:16:00,36.7,10.9,30.39,NW,310,10.0,21.0,34,0.00,,,0.00,Wunderground v.1.15,2013-02-15 20:16:00,
2013-02-15 13:21:00,36.9,10.4,30.39,NNW,342,11.0,14.0,33,0.00,,,0.00,Wunderground v.1.15,2013-02-15 20:21:00,
2013-02-15 13:26:00,37.0,9.8,30.39,NW,326,9.0,19.0,32,0.00,,,0.00,Wunderground v.1.15,2013-02-15 20:26:00,
2013-02-15 13:31:00,37.0,10.5,30.39,NW,311,20.0,22.0,33,0.00,,,0.00,Wunderground v.1.15,2013-02-15 20:31:00,
2013-02-15 13:36:00,36.6,10.8,30.39,NNW,329,17.0,23.0,34,0.00,,,0.00,Wunderground v.1.15,2013-02-15 20:36:00,
2013-02-15 13:41:00,36.2,12.4,30.39,NNW,340,17.0,23.0,37,0.00,,,0.00,Wunderground v.1.15,2013-02-15 20:41:00,
2013-02-15 13:46:00,35.8,12.0,30.39,NNW,340,17.0,24.0,37,0.00,,,0.00,Wunderground v.1.15,2013-02-15 20:46:00,
2013-02-15 13:51:00,35.9,11.5,30.38,NNW,341,18.0,22.0,36,0.00,,,0.00,Wunderground v.1.15,2013-02-15 20:51:00,
2013-02-15 13:56:00,35.5,11.8,30.39,NNW,327,19.0,29.0,37,0.00,,,0.00,Wunderground v.1.15,2013-02-15 20:56:00,
2013-02-15 14:01:00,35.4,11.1,30.38,NNW,332,21.0,25.0,36,0.00,,,0.00,Wunderground v.1.15,2013-02-15 21:01:00,
2013-02-15 14:06:00,35.3,10.3,30.38,NNW,329,19.0,26.0,35,0.00,,,0.00,Wunderground v.1.15,2013-02-15 21:06:00,
2013-02-15 14:11:00,35.5,13.0,30.38,NNW,340,24.0,24.0,39,0.00,,,0.00,Wunderground v.1.15,2013-02-15 21:11:00,
2013-02-15 14:16:00,35.5,11.1,30.38,NNW,334,23.0,26.0,36,0.00,,,0.00,Wunderground v.1.15,2013-02-15 21:16:00,
2013-02-15 14:21:00,35.4,10.4,30.39,NNW,327,17.0,23.0,35,0.00,,,0.00,Wunderground v.1.15,2013-02-15 21:21:00,
2013-02-15 14:26:00,36.1,12.3,30.39,NNW,341,20.0,27.0,37,0.00,,,0.00,Wunderground v.1.15,2013-02-15 21:26:00,
2013-02-15 14:31:00,36.5,10.7,30.39,NNW,329,14.0,18.0,34,0.00,,,0.00,Wunderground v.1.15,2013-02-15 21:31:00,
2013-02-15 14:36:00,36.4,10.7,30.39,NNW,327,12.0,22.0,34,0.00,,,0.00,Wunderground v.1.15,2013-02-15 21:36:00,
2013-02-15 14:41:00,36.4,10.0,30.40,NNW,348,18.0,25.0,33,0.00,,,0.00,Wunderground v.1.15,2013-02-15 21:41:00,
2013-02-15 14:46:00,36.7,10.9,30.39,NW,319,20.0,25.0,34,0.00,,,0.00,Wunderground v.1.15,2013-02-15 21:46:00,
2013-02-15 14:51:00,36.0,11.0,30.40,NNW,340,19.0,27.0,35,0.00,,,0.00,Wunderground v.1.15,2013-02-15 21:51:00,
2013-02-15 14:56:00,35.7,10.7,30.40,NNW,341,21.0,27.0,35,0.00,,,0.00,Wunderground v.1.15,2013-02-15 21:56:00,
2013-02-15 15:01:00,35.5,11.1,30.40,NNW,334,20.0,23.0,36,0.00,,,0.00,Wunderground v.1.15,2013-02-15 22:01:00,
2013-02-15 15:06:00,35.6,9.9,30.41,NNW,330,15.0,25.0,34,0.00,,,0.00,Wunderground v.1.15,2013-02-15 22:06:00,
2013-02-15 15:11:00,36.0,9.6,30.41,NW,313,17.0,23.0,33,0.00,,,0.00,Wunderground v.1.15,2013-02-15 22:11:00,
2013-02-15 15:16:00,35.9,12.1,30.41,WNW,298,18.0,25.0,37,0.00,,,0.00,Wunderground v.1.15,2013-02-15 22:16:00,
2013-02-15 15:21:00,35.7,12.5,30.41,NNW,327,23.0,24.0,38,0.00,,,0.00,Wunderground v.1.15,2013-02-15 22:21:00,
2013-02-15 15:26:00,34.9,10.6,30.41,NW,319,22.0,30.0,36,0.00,,,0.00,Wunderground v.1.15,2013-02-15 22:26:00,
2013-02-15 15:31:00,34.6,11.6,30.41,NW,311,24.0,25.0,38,0.00,,,0.00,Wunderground v.1.15,2013-02-15 22:31:00,
2013-02-15 15:36:00,34.5,12.1,30.42,NW,311,18.0,26.0,39,0.00,,,0.00,Wunderground v.1.15,2013-02-15 22:36:00,
2013-02-15 15:41:00,34.4,12.0,30.42,NW,316,19.0,25.0,39,0.00,,,0.00,Wunderground v.1.15,2013-02-15 22:41:00,
2013-02-15 15:46:00,34.2,11.2,30.42,NW,317,18.0,30.0,38,0.00,,,0.00,Wunderground v.1.15,2013-02-15 22:46:00,
2013-02-15 15:51:00,33.9,11.5,30.42,NW,324,24.0,27.0,39,0.00,,,0.00,Wunderground v.1.15,2013-02-15 22:51:00,
2013-02-15 15:56:00,34.1,12.8,30.43,NW,314,20.0,27.0,41,0.00,,,0.00,Wunderground v.1.15,2013-02-15 22:56:00,
2013-02-15 16:01:00,34.3,13.0,30.43,NW,317,22.0,22.0,41,0.00,,,0.00,Wunderground v.1.15,2013-02-15 23:01:00,
2013-02-15 16:06:00,33.7,11.9,30.42,NW,313,18.0,24.0,40,0.00,,,0.00,Wunderground v.1.15,2013-02-15 23:06:00,
2013-02-15 16:11:00,33.3,12.1,30.42,NW,322,23.0,23.0,41,0.00,,,0.00,Wunderground v.1.15,2013-02-15 23:11:00,
2013-02-15 16:16:00,33.2,11.5,30.42,NNW,328,18.0,23.0,40,0.00,,,0.00,Wunderground v.1.15,2013-02-15 23:16:00,
2013-02-15 16:21:00,33.1,11.9,30.42,NW,313,15.0,17.0,41,0.00,,,0.00,Wunderground v.1.15,2013-02-15 23:21:00,
2013-02-15 16:26:00,33.0,12.4,30.42,NW,321,13.0,21.0,42,0.00,,,0.00,Wunderground v.1.15,2013-02-15 23:26:00,
2013-02-15 16:31:00,32.8,11.1,30.43,NW,314,15.0,21.0,40,0.00,,,0.00,Wunderground v.1.15,2013-02-15 23:31:00,
2013-02-15 16:36:00,32.6,12.5,30.43,NW,313,15.0,21.0,43,0.00,,,0.00,Wunderground v.1.15,2013-02-15 23:36:00,
2013-02-15 16:41:00,32.2,11.6,30.43,NW,307,16.0,20.0,42,0.00,,,0.00,Wunderground v.1.15,2013-02-15 23:41:00,
2013-02-15 16:46:00,32.0,12.0,30.43,NW,311,17.0,22.0,43,0.00,,,0.00,Wunderground v.1.15,2013-02-15 23:46:00,
2013-02-15 16:51:00,31.6,12.2,30.43,NW,306,17.0,19.0,44,0.00,,,0.00,Wunderground v.1.15,2013-02-15 23:51:00,
2013-02-15 16:56:00,31.2,12.3,30.44,NW,313,15.0,19.0,45,0.00,,,0.00,Wunderground v.1.15,2013-02-15 23:56:00,
2013-02-15 17:01:00,30.8,11.9,30.44,NW,319,20.0,20.0,45,0.00,,,0.00,Wunderground v.1.15,2013-02-16 00:01:00,
2013-02-15 17:06:00,30.4,12.1,30.44,NW,314,16.0,21.0,46,0.00,,,0.00,Wunderground v.1.15,2013-02-16 00:06:00,
2013-02-15 17:11:00,30.1,11.8,30.44,NW,313,16.0,18.0,46,0.00,,,0.00,Wunderground v.1.15,2013-02-16 00:11:00,
2013-02-15 17:16:00,29.7,10.9,30.44,NW,312,18.0,21.0,45,0.00,,,0.00,Wunderground v.1.15,2013-02-16 00:16:00,
2013-02-15 17:21:00,29.5,9.7,30.44,NW,322,18.0,20.0,43,0.00,,,0.00,Wunderground v.1.15,2013-02-16 00:21:00,
2013-02-15 17:26:00,29.2,10.0,30.44,NW,326,17.0,21.0,44,0.00,,,0.00,Wunderground v.1.15,2013-02-16 00:26:00,
2013-02-15 17:31:00,28.8,10.1,30.45,NW,326,16.0,20.0,45,0.00,,,0.00,Wunderground v.1.15,2013-02-16 00:31:00,
2013-02-15 17:36:00,28.2,9.5,30.45,NNW,329,12.0,20.0,45,0.00,,,0.00,Wunderground v.1.15,2013-02-16 00:36:00,
2013-02-15 17:41:00,27.6,10.0,30.45,NNW,330,16.0,19.0,47,0.00,,,0.00,Wunderground v.1.15,2013-02-16 00:41:00,
2013-02-15 17:46:00,27.2,9.6,30.46,NW,323,14.0,20.0,47,0.00,,,0.00,Wunderground v.1.15,2013-02-16 00:46:00,
2013-02-15 17:51:00,27.1,9.5,30.46,NNW,336,19.0,22.0,47,0.00,,,0.00,Wunderground v.1.15,2013-02-16 00:51:00,
2013-02-15 17:56:00,27.1,9.5,30.47,NW,326,18.0,22.0,47,0.00,,,0.00,Wunderground v.1.15,2013-02-16 00:56:00,
2013-02-15 18:01:00,27.2,9.1,30.47,NNW,338,19.0,21.0,46,0.00,,,0.00,Wunderground v.1.15,2013-02-16 01:01:00,
2013-02-15 18:06:00,27.0,9.4,30.47,NNW,338,17.0,21.0,47,0.00,,,0.00,Wunderground v.1.15,2013-02-16 01:06:00,
2013-02-15 18:11:00,26.9,8.8,30.48,NNW,329,15.0,21.0,46,0.00,,,0.00,Wunderground v.1.15,2013-02-16 01:11:00,
2013-02-15 18:16:00,26.5,9.4,30.48,NNW,344,13.0,21.0,48,0.00,,,0.00,Wunderground v.1.15,2013-02-16 01:16:00,
2013-02-15 18:21:00,26.0,9.4,30.48,NNW,336,15.0,17.0,49,0.00,,,0.00,Wunderground v.1.15,2013-02-16 01:21:00,
2013-02-15 18:26:00,25.9,8.9,30.48,NNW,330,13.0,20.0,48,0.00,,,0.00,Wunderground v.1.15,2013-02-16 01:26:00,
2013-02-15 18:31:00,25.6,9.1,30.48,NNW,329,15.0,18.0,49,0.00,,,0.00,Wunderground v.1.15,2013-02-16 01:31:00,
2013-02-15 18:36:00,25.5,9.0,30.48,NNE,16,13.0,18.0,49,0.00,,,0.00,Wunderground v.1.15,2013-02-16 01:36:00,
2013-02-15 18:41:00,25.3,9.2,30.48,NNW,348,11.0,14.0,50,0.00,,,0.00,Wunderground v.1.15,2013-02-16 01:41:00,
2013-02-15 18:46:00,24.8,9.2,30.48,North,350,13.0,14.0,51,0.00,,,0.00,Wunderground v.1.15,2013-02-16 01:46:00,
2013-02-15 18:51:00,24.3,9.6,30.49,North,355,13.0,13.0,53,0.00,,,0.00,Wunderground v.1.15,2013-02-16 01:51:00,
2013-02-15 18:56:00,23.9,9.2,30.49,North,355,15.0,15.0,53,0.00,,,0.00,Wunderground v.1.15,2013-02-16 01:56:00,
2013-02-15 19:01:00,23.9,9.6,30.49,North,360,12.0,15.0,54,0.00,,,0.00,Wunderground v.1.15,2013-02-16 02:01:00,
2013-02-15 19:06:00,23.9,9.6,30.49,North,355,11.0,15.0,54,0.00,,,0.00,Wunderground v.1.15,2013-02-16 02:06:00,
2013-02-15 19:11:00,23.6,9.4,30.49,North,355,15.0,18.0,54,0.00,,,0.00,Wunderground v.1.15,2013-02-16 02:11:00,
2013-02-15 19:16:00,24.0,9.3,30.49,North,355,14.0,20.0,53,0.00,,,0.00,Wunderground v.1.15,2013-02-16 02:16:00,
2013-02-15 19:21:00,24.2,9.5,30.50,North,355,14.0,15.0,53,0.00,,,0.00,Wunderground v.1.15,2013-02-16 02:21:00,
2013-02-15 19:26:00,23.9,9.2,30.50,NNW,341,14.0,17.0,53,0.00,,,0.00,Wunderground v.1.15,2013-02-16 02:26:00,
2013-02-15 19:31:00,24.3,9.2,30.50,North,355,16.0,20.0,52,0.00,,,0.00,Wunderground v.1.15,2013-02-16 02:31:00,
2013-02-15 19:36:00,24.4,9.3,30.50,North,360,17.0,20.0,52,0.00,,,0.00,Wunderground v.1.15,2013-02-16 02:36:00,
2013-02-15 19:41:00,24.7,9.1,30.50,North,355,17.0,18.0,51,0.00,,,0.00,Wunderground v.1.15,2013-02-16 02:41:00,
2013-02-15 19:46:00,24.7,9.1,30.50,North,355,16.0,19.0,51,0.00,,,0.00,Wunderground v.1.15,2013-02-16 02:46:00,
2013-02-15 19:51:00,24.7,8.7,30.51,North,360,18.0,19.0,50,0.00,,,0.00,Wunderground v.1.15,2013-02-16 02:51:00,
2013-02-15 19:56:00,24.7,9.1,30.51,North,360,16.0,22.0,51,0.00,,,0.00,Wunderground v.1.15,2013-02-16 02:56:00,
2013-02-15 20:01:00,25.1,8.6,30.52,North,5,14.0,19.0,49,0.00,,,0.00,Wunderground v.1.15,2013-02-16 03:01:00,
2013-02-15 20:07:00,24.9,8.9,30.52,North,360,17.0,21.0,50,0.00,,,0.00,Wunderground v.1.15,2013-02-16 03:07:00,
2013-02-15 20:12:00,24.6,9.0,30.52,North,360,15.0,20.0,51,0.00,,,0.00,Wunderground v.1.15,2013-02-16 03:12:00,
2013-02-15 20:17:00,24.7,9.1,30.52,North,9,10.0,21.0,51,0.00,,,0.00,Wunderground v.1.15,2013-02-16 03:17:00,
2013-02-15 20:22:00,24.6,8.1,30.52,NNW,342,15.0,17.0,49,0.00,,,0.00,Wunderground v.1.15,2013-02-16 03:22:00,
2013-02-15 20:27:00,24.7,8.7,30.52,North,5,13.0,17.0,50,0.00,,,0.00,Wunderground v.1.15,2013-02-16 03:27:00,
2013-02-15 20:32:00,23.6,8.1,30.53,NNW,337,12.0,15.0,51,0.00,,,0.00,Wunderground v.1.15,2013-02-16 03:32:00,
2013-02-15 20:37:00,22.9,7.9,30.52,NNW,335,10.0,15.0,52,0.00,,,0.00,Wunderground v.1.15,2013-02-16 03:37:00,
2013-02-15 20:42:00,22.1,7.1,30.52,NW,310,8.0,10.0,52,0.00,,,0.00,Wunderground v.1.15,2013-02-16 03:42:00,
2013-02-15 20:47:00,21.5,6.6,30.52,NW,318,9.0,11.0,52,0.00,,,0.00,Wunderground v.1.15,2013-02-16 03:47:00,
2013-02-15 20:52:00,21.3,6.4,30.52,NW,317,9.0,10.0,52,0.00,,,0.00,Wunderground v.1.15,2013-02-16 03:52:00,
2013-02-15 20:57:00,22.0,7.0,30.53,NNW,338,11.0,11.0,52,0.00,,,0.00,Wunderground v.1.15,2013-02-16 03:57:00,
2013-02-15 21:02:00,22.4,7.0,30.53,NNW,341,9.0,10.0,51,0.00,,,0.00,Wunderground v.1.15,2013-02-16 04:02:00,
2013-02-15 21:07:00,21.9,6.5,30.53,NNW,338,5.0,10.0,51,0.00,,,0.00,Wunderground v.1.15,2013-02-16 04:07:00,
2013-02-15 21:12:00,21.3,6.4,30.53,NW,311,8.0,8.0,52,0.00,,,0.00,Wunderground v.1.15,2013-02-16 04:12:00,
2013-02-15 21:17:00,21.5,6.6,30.53,NW,321,7.0,9.0,52,0.00,,,0.00,Wunderground v.1.15,2013-02-16 04:17:00,
2013-02-15 21:22:00,22.7,6.8,30.53,NW,313,6.0,8.0,50,0.00,,,0.00,Wunderground v.1.15,2013-02-16 04:22:00,
2013-02-15 21:27:00,23.0,5.7,30.52,NW,305,8.0,8.0,47,0.00,,,0.00,Wunderground v.1.15,2013-02-16 04:27:00,
2013-02-15 21:32:00,23.6,5.3,30.52,NW,325,7.0,8.0,45,0.00,,,0.00,Wunderground v.1.15,2013-02-16 04:32:00,
2013-02-15 21:37:00,23.8,5.0,30.52,WNW,300,6.0,9.0,44,0.00,,,0.00,Wunderground v.1.15,2013-02-16 04:37:00,
2013-02-15 21:42:00,23.4,4.2,30.52,WNW,303,8.0,9.0,43,0.00,,,0.00,Wunderground v.1.15,2013-02-16 04:42:00,
2013-02-15 21:47:00,23.5,4.2,30.52,WNW,299,12.0,14.0,43,0.00,,,0.00,Wunderground v.1.15,2013-02-16 04:47:00,
2013-02-15 21:52:00,24.5,4.1,30.52,WNW,283,9.0,13.0,41,0.00,,,0.00,Wunderground v.1.15,2013-02-16 04:52:00,
2013-02-15 21:57:00,25.0,4.0,30.52,WNW,298,9.0,14.0,40,0.00,,,0.00,Wunderground v.1.15,2013-02-16 04:57:00,
2013-02-15 22:00:00,24.9,3.9,30.52,WNW,288,12.0,13.0,40,0.00,,,0.00,Wunderground v.1.15,2013-02-16 05:00:00,
2013-02-15 22:05:00,25.3,4.8,30.51,WNW,295,14.0,17.0,41,0.00,,,0.00,Wunderground v.1.15,2013-02-16 05:05:00,
2013-02-15 22:10:00,25.3,4.3,30.51,WNW,294,13.0,13.0,40,0.00,,,0.00,Wunderground v.1.15,2013-02-16 05:10:00,
2013-02-15 22:15:00,25.3,4.3,30.51,WNW,298,12.0,16.0,40,0.00,,,0.00,Wunderground v.1.15,2013-02-16 05:15:00,
2013-02-15 22:20:00,25.8,4.2,30.52,WNW,303,11.0,13.0,39,0.00,,,0.00,Wunderground v.1.15,2013-02-16 05:20:00,
2013-02-15 22:23:00,25.9,3.7,30.51,WNW,299,11.0,14.0,38,0.00,,,0.00,Wunderground v.1.15,2013-02-16 05:23:00,
2013-02-15 22:28:00,25.6,4.6,30.51,NW,317,9.0,14.0,40,0.00,,,0.00,Wunderground v.1.15,2013-02-16 05:28:00,
2013-02-15 22:33:00,25.3,3.8,30.51,NNW,327,10.0,11.0,39,0.00,,,0.00,Wunderground v.1.15,2013-02-16 05:33:00,
2013-02-15 22:38:00,25.4,3.8,30.51,WNW,299,8.0,13.0,39,0.00,,,0.00,Wunderground v.1.15,2013-02-16 05:38:00,
2013-02-15 22:43:00,25.4,3.8,30.51,NW,314,12.0,13.0,39,0.00,,,0.00,Wunderground v.1.15,2013-02-16 05:43:00,
2013-02-15 22:48:00,25.5,3.4,30.51,NW,323,4.0,13.0,38,0.00,,,0.00,Wunderground v.1.15,2013-02-16 05:48:00,
2013-02-15 22:53:00,26.0,3.2,30.51,NW,309,5.0,11.0,37,0.00,,,0.00,Wunderground v.1.15,2013-02-16 05:53:00,
2013-02-15 22:58:00,26.3,3.5,30.52,NW,321,6.0,11.0,37,0.00,,,0.00,Wunderground v.1.15,2013-02-16 05:58:00,
2013-02-15 23:03:00,25.8,3.1,30.51,NNW,335,5.0,6.0,37,0.00,,,0.00,Wunderground v.1.15,2013-02-16 06:03:00,
2013-02-15 23:08:00,24.2,3.3,30.52,North,349,5.0,8.0,40,0.00,,,0.00,Wunderground v.1.15,2013-02-16 06:08:00,
2013-02-15 23:13:00,23.5,2.7,30.52,NNW,348,4.0,5.0,40,0.00,,,0.00,Wunderground v.1.15,2013-02-16 06:13:00,
2013-02-15 23:18:00,23.9,3.0,30.52,NNW,341,6.0,7.0,40,0.00,,,0.00,Wunderground v.1.15,2013-02-16 06:18:00,
2013-02-15 23:23:00,23.8,3.5,30.52,North,360,4.0,9.0,41,0.00,,,0.00,Wunderground v.1.15,2013-02-16 06:23:00,
2013-02-15 23:28:00,22.7,2.5,30.52,NE,46,1.0,9.0,41,0.00,,,0.00,Wunderground v.1.15,2013-02-16 06:28:00,
2013-02-15 23:33:00,21.0,3.0,30.52,SE,144,7.0,8.0,45,0.00,,,0.00,Wunderground v.1.15,2013-02-16 06:33:00,
2013-02-15 23:38:00,18.7,1.8,30.52,SSE,155,4.0,8.0,47,0.00,,,0.00,Wunderground v.1.15,2013-02-16 06:38:00,
2013-02-15 23:43:00,17.3,1.8,30.52,SSE,158,9.0,10.0,50,0.00,,,0.00,Wunderground v.1.15,2013-02-16 06:43:00,
2013-02-15 23:48:00,15.8,1.7,30.52,SE,146,9.0,12.0,53,0.00,,,0.00,Wunderground v.1.15,2013-02-16 06:48:00,
2013-02-15 23:53:00,15.8,2.5,30.52,SSE,148,7.0,11.0,55,0.00,,,0.00,Wunderground v.1.15,2013-02-16 06:53:00,
2013-02-15 23:58:00,15.6,2.7,30.52,SE,141,9.0,11.0,56,0.00,,,0.00,Wunderground v.1.15,2013-02-16 06:58:00,